User: anonymous   Login
Location: Unspecified
(0.0000°N, 0.0000°E)
Time: 05:40:45
(UTC+00:00)
Language:

Mublcom - Orbit

View from above orbital plane
View from above orbital plane
View from above satellite
View from above satellite

Ground track
Ground track

The orbit data is extracted from the following two-line orbital elements,

1 25736U 99026B   18267.22423597 +.00000190 +00000-0 +59904-4 0  9998
2 25736 097.7128 313.0942 0005958 041.5341 318.6307 14.49170362020317
Epoch (UTC): 24 September 2018 05:22:53
Eccentricity: 0.0005958
inclination: 97.7128°
perigee height: 724 km
apogee height: 732 km
right ascension of ascending node: 313.0942°
argument of perigee: 41.5341°
revolutions per day: 14.49170362
mean anomaly at epoch: 318.6307°
orbit number at epoch: 2031

The dashed part of the orbit path shows where the satellite is in the earth's shadow,  

DLR